This demonstration page uses our WeatherBlox Daily Observations layout. Learn more.

Left ArrowRight Arrow

31.84235, -102.49876

Hourly Observations for November 24, 2015

Temp ( °F °C ) Dew Point ( °F °C ) Humidity (%) Winds ( mph kmh ) Pressure ( in mb ) Visibility ( mi km ) Precip ( " mm )
12:53 am 00:53 Clear 47 8.3 32 0 56 56 S 10 17 30.01 1016 10 16 0.00 0.00
1:53 am 01:53 Clear 46 7.8 31 -0.6 56 56 S 12 19 29.99 1016 10 16 0.00 0.00
2:53 am 02:53 Clear 45 7.2 30 -1.1 56 56 S 10 17 29.98 1015 10 16 0.00 0.00
3:53 am 03:53 Clear 44 6.7 30 -1.1 58 58 S 8 13 29.98 1015 10 16 0.00 0.00
4:53 am 04:53 Clear 42 5.6 29 -1.7 60 60 S 6 9 29.98 1015 10 16 0.00 0.00
5:53 am 05:53 Clear 40 4.4 29 -1.7 65 65 S 8 13 29.98 1015 10 16 0.00 0.00
6:53 am 06:53 Clear 38 3.3 29 -1.7 70 70 S 7 11 29.99 1016 10 16 0.00 0.00
7:53 am 07:53 Sunny 39 3.9 30 -1.1 70 70 SSW 8 13 30.00 1016 10 16 0.00 0.00
8:53 am 08:53 Sunny 47 8.3 35 1.7 63 63 SSW 9 15 30.01 1016 10 16 0.00 0.00
9:53 am 09:53 Sunny 54 12.2 38 3.3 55 55 SSW 14 22 30.00 1016 10 16 0.00 0.00
10:53 am 10:53 Sunny 59 15 38 3.3 46 46 SSW 14 22 30.00 1016 10 16 0.00 0.00
11:53 am 11:53 Sunny 64 17.8 38 3.3 38 38 SSW 13 20 29.97 1015 10 16 0.00 0.00
12:53 pm 12:53 Sunny 66 18.9 38 3.3 36 36 SW 12 19 29.93 1014 10 16 0.00 0.00
1:53 pm 13:53 Sunny 70 21.1 38 3.3 31 31 WSW 13 20 29.89 1012 10 16 0.00 0.00
2:53 pm 14:53 Sunny 71 21.7 37 2.8 29 29 WSW 14 22 29.87 1012 10 16 0.00 0.00
3:53 pm 15:53 Sunny 72 22.2 37 2.8 28 28 SSW 13 20 29.85 1011 10 16 0.00 0.00
4:53 pm 16:53 Sunny 71 21.7 38 3.3 30 30 S 12 19 29.86 1011 10 16 0.00 0.00
5:53 pm 17:53 Clear 66 18.9 39 3.9 37 37 S 10 17 29.87 1012 10 16 0.00 0.00
6:53 pm 18:53 Clear 61 16.1 42 5.6 50 50 S 14 22 29.90 1013 10 16 0.00 0.00
7:53 pm 19:53 Clear 58 14.4 44 6.7 60 60 S 15 24 29.91 1013 10 16 0.00 0.00
8:53 pm 20:53 Clear 56 13.3 45 7.2 67 67 S 14 22 29.91 1013 10 16 0.00 0.00
9:53 pm 21:53 Clear 54 12.2 47 8.3 77 77 S 13 20 29.91 1013 10 16 0.00 0.00
10:53 pm 22:53 Clear 52 11.1 47 8.3 83 83 S 10 17 29.91 1013 10 16 0.00 0.00
11:53 pm 23:53 Mostly Clear with Mist and Fog 51 10.6 48 8.9 89 89 S 9 15 29.90 1013 6 10 0.00 0.00

Powered by AerisWeather